Weather Roundup
Issued by NWS Corpus Christi, TX

Home | Current Version | Previous Version | Text Only | Print | Product List | Glossary On
Versions: 1 2 3 4 5 6 7 8 9 10 11 12 13 14 15 16 17 18 19 20 21 22 23 24 25 26 27 28 29 30 31 32 33 34 35 36 37 38 39 40 41 42 43 44 45 46 47 48 49 50
000
ASUS44 KCRP 240510
HRRCRP

SOUTH TEXAS REGIONAL WEATHER ROUNDUP
NATIONAL WEATHER SERVICE CORPUS CHRISTI TX
1200 AM CDT SUN JUL 24 2016


TXZ229>244-240600-
...CORPUS CHRISTI AREA OBSERVATIONS...

CITY           SKY/WX    TMP DP  RH WIND       PRES   REMARKS
CORPUS CHRISTI PTCLDY    83  77  82 SE9       29.93R HX  92
NAS CORPUS CHR CLEAR     85  78  80 S14G23    29.93R HX  96
ROCKPORT       PTCLDY    85  76  74 SE10      29.94R HX  94
KINGSVILLE NAS CLEAR     82  79  90 SE10      29.93R HX  92
ALICE          CLEAR     81  75  82 SE9       29.92R
FALFURRIAS     PTCLDY    83  75  76 SE12      29.92R HX  90
$$

...VICTORIA AREA OBSERVATIONS...

CITY           SKY/WX    TMP DP  RH WIND       PRES   REMARKS
VICTORIA       CLEAR     80  75  84 SE7       29.95R
BEEVILLE       FAIR      80  77  90 SE6       29.94R
PLEASANTON     CLEAR     83  71  65 SE9       29.93R
SAN ANTONIO    PTCLDY    84  70  62 SE12      29.96R
$$

...LAREDO AREA OBSERVATIONS...

CITY           SKY/WX    TMP DP  RH WIND       PRES   REMARKS
LAREDO         CLEAR     88  73  61 SE20      29.88R HX  95
COTULLA        PTCLDY    88  71  57 SE16      29.90R HX  94
DEL RIO        CLEAR     91  60  35 E9        29.85R HX  90
MCALLEN        CLEAR     85  75  72 SE13      29.93R HX  93
HEBBRONVILLE   CLEAR     83  72  69 SE13      29.93S
$$

...OTHER TEXAS OBSERVATIONS...

CITY           SKY/WX    TMP DP  RH WIND       PRES   REMARKS
BROWNSVILLE    CLEAR     83  76  79 SE13      29.94R HX  91
HOUSTON        PTCLDY    84  75  74 S7        29.95S HX  92
COL. STATION   CLEAR     86  74  67 S12       29.95R HX  94
AUSTIN         CLEAR     85  72  65 S10       29.95R HX  91
WACO           CLEAR     86  68  54 SE6       29.93R
FORT WORTH     CLEAR     89  71  55 SE9       29.91S HX  95
WICHITA FALLS  CLEAR     85  67  54 S13       29.90S
LUBBOCK        CLEAR     80  57  45 SE7       30.00R
EL PASO        CLEAR     90  43  19 SE7       29.93S
$$

...MARINE OBSERVATIONS...

STATION/POSITION TIME  SKY/WX   TEMP    WIND        PRES    VSBY  WAVE   SWELL
                                AIR SEA DIR/SP/G                  HT/PER HT/PER
                 (UTC)          (F)     (DEG/KT/KT) (MB)    (MI)  (FT/S) (FT/S)
PORT ARANSAS     0500            85 89  140/ 19/ 20 1013.7R
BUOY 90 E PORT A 0450            86 87  130/ 12/ 14 1014.4R         2/ 4
BUOY 45 SE BAFFI 0450            85 85  160/ 16/ 17 1013.4R         2/ 4
BUOY 200 E PT IS 0450            86 87  150/ 10/ 12 1015.0R         1/ 4
BUOY 15 E GALVES 0450            87 89  170/ 10/ 12 1014.4S         1/ 6
$$




USA.gov is the U.S. government's official web portal to all federal, state and local government web resources and services.